Weather History for Big Rapids, MI

Change the Weather History Date:

Friday, March 30, 2012

  Actual Average Record
Temperature  
Mean Temperature 32 °F -  
Max Temperature 33 °F 48 °F 78 °F (1998)
Min Temperature 30 °F 27 °F 10 °F (1975)
Degree Days  
Heating Degree Days 34    
Moisture  
Dew Point 30 °F    
Average Humidity 91    
Maximum Humidity 100    
Minimum Humidity 83    
Precipitation  
Precipitation 0.00 in - - ()
Sea Level Pressure  
Sea Level Pressure 29.94 in    
Wind  
Wind Speed 7 mph (ESE)    
Max Wind Speed 13 mph    
Max Gust Speed 20 mph    
Visibility 8 miles    
Events Rain , Snow    
Averages and records for this station are not official NWS values.
T = Trace of Precipitation, MM = Missing Value Source: NWS Daily Summary

Daily Weather History Graph

Daily Weather History Graph

Search for Another Location

Airport:

Trip Planner

Search our weather history database for the weather conditions in past years. The results will help you decide how hot, cold, wet, or windy it might be!

Date:

Astronomy

Mar. 30, 2012 Rise Set
Actual Time 7:26 AM EDT 8:07 PM EDT
Civil Twilight 6:57 AM EDT 8:36 PM EDT
Nautical Twilight 6:23 AM EDT 9:10 PM EDT
Astronomical Twilight 5:47 AM EDT 9:46 PM EDT
Moon 12:22 PM EDT (3/30) 2:51 AM EDT (3/30)
Length of Visible Light 13h 38m
Length of Day
12h 40m
Waxing Crescent, 49% of the Moon is Illuminated
Mar 30
Waxing Crescent
Mar 30
First Quarter
Apr 6
Full
Apr 13
Last Quarter
Apr 21
New

Hourly Weather History & Observations

Time (EDT) Temp. Windchill Dew Point Humidity Pressure Visibility Wind Dir Wind Speed Gust Speed Precip Events Conditions
12:14 AM 33.3 °F 26.4 °F 28.8 °F 84% 30.08 in 10.0 mi ESE 8.1 mph - N/A   Clear
12:34 AM 33.1 °F 27.7 °F 28.9 °F 85% 30.07 in 10.0 mi ESE 5.8 mph - N/A   Clear
12:53 AM 33.1 °F 27.7 °F 28.4 °F 83% 30.06 in 10.0 mi ESE 5.8 mph - N/A   Clear
1:14 AM 32.5 °F 27.1 °F 28.2 °F 84% 30.06 in 10.0 mi ESE 5.8 mph - N/A   Clear
1:34 AM 32.4 °F 29.1 °F 28.0 °F 84% 30.06 in 10.0 mi ESE 3.5 mph - N/A   Clear
1:53 AM 32.4 °F 27.9 °F 28.2 °F 85% 30.06 in 10.0 mi ESE 4.6 mph - N/A   Clear
2:14 AM 32.0 °F 25.6 °F 28.0 °F 85% 30.06 in 10.0 mi ESE 6.9 mph - N/A   Clear
2:34 AM 32.0 °F 26.4 °F 27.9 °F 85% 30.05 in 10.0 mi ESE 5.8 mph - N/A   Clear
2:53 AM 31.5 °F 26.8 °F 28.0 °F 87% 30.02 in 10.0 mi ESE 4.6 mph - N/A   Clear
3:14 AM 31.5 °F 26.8 °F 27.9 °F 87% 30.01 in 10.0 mi SE 4.6 mph - N/A   Clear
3:34 AM 31.3 °F 25.6 °F 27.7 °F 87% 30.01 in 10.0 mi ESE 5.8 mph - N/A   Clear
3:53 AM 31.1 °F 25.4 °F 27.5 °F 87% 30.01 in 10.0 mi ESE 5.8 mph - N/A   Clear
4:14 AM 31.1 °F 24.5 °F 27.5 °F 87% 30.00 in 10.0 mi ESE 6.9 mph - N/A   Clear
4:34 AM 31.1 °F 24.5 °F 27.1 °F 85% 29.98 in 10.0 mi ESE 6.9 mph - N/A   Clear
4:53 AM 31.5 °F 24.9 °F 27.1 °F 84% 29.97 in 10.0 mi ESE 6.9 mph 16.1 mph N/A   Clear
5:14 AM 31.6 °F 23.1 °F 27.0 °F 83% 29.97 in 10.0 mi SE 10.4 mph - N/A   Clear
5:34 AM 31.6 °F 26.0 °F 27.0 °F 83% 29.98 in 10.0 mi SSE 5.8 mph - N/A   Clear
5:53 AM 31.6 °F 23.7 °F 27.0 °F 83% 29.99 in 10.0 mi SE 9.2 mph - N/A   Clear
6:14 AM 31.1 °F 23.7 °F 26.6 °F 83% 29.96 in 10.0 mi ESE 8.1 mph 16.1 mph N/A   Clear
6:34 AM 31.1 °F 24.5 °F 26.6 °F 83% 29.96 in 10.0 mi ESE 6.9 mph - N/A   Clear
6:53 AM 30.9 °F 22.2 °F 26.8 °F 85% 29.96 in 10.0 mi ESE 10.4 mph - N/A   Clear
7:14 AM 30.7 °F 22.0 °F 27.0 °F 86% 29.94 in 10.0 mi ESE 10.4 mph 17.3 mph N/A   Scattered Clouds
7:33 AM 30.7 °F 22.0 °F 27.0 °F 86% 29.94 in 10.0 mi ESE 10.4 mph 16.1 mph N/A   Mostly Cloudy
7:54 AM 30.7 °F 22.0 °F 27.1 °F 86% 29.96 in 10.0 mi SE 10.4 mph - N/A   Overcast
8:14 AM 31.1 °F 27.7 °F 27.3 °F 86% 29.99 in 10.0 mi SE 3.5 mph - N/A   Overcast
8:34 AM 31.1 °F 26.4 °F 27.5 °F 87% 29.99 in 10.0 mi East 4.6 mph - N/A   Overcast
8:54 AM 31.3 °F - 27.5 °F 86% 30.01 in 10.0 mi Calm Calm - N/A   Overcast
9:14 AM 30.4 °F - 28.4 °F 92% 29.97 in 0.2 mi North - - N/A Snow Snow
9:34 AM 30.2 °F 23.4 °F 30.2 °F 100% 29.93 in 0.8 mi East 6.9 mph - N/A Snow Light Snow
9:54 AM 30.6 °F 21.8 °F 30.6 °F 100% 29.89 in 2.0 mi East 10.4 mph - N/A Snow Light Snow
10:13 AM 31.1 °F 24.5 °F 30.7 °F 99% 29.91 in 4.0 mi East 6.9 mph - N/A Snow Light Snow
10:34 AM 31.8 °F 25.4 °F 31.6 °F 99% 29.94 in 2.0 mi East 6.9 mph - N/A Snow Light Snow
10:54 AM 32.0 °F 24.2 °F 31.8 °F 99% 29.92 in 2.0 mi East 9.2 mph 17.3 mph N/A Snow Light Snow
11:13 AM 32.0 °F 26.4 °F 32.0 °F 100% 29.92 in 4.0 mi East 5.8 mph - N/A Snow Light Snow
11:34 AM 32.0 °F 22.5 °F 32.0 °F 100% 29.90 in 5.0 mi East 12.7 mph 19.6 mph N/A Snow Light Snow
11:53 AM 31.8 °F 23.3 °F 31.3 °F 98% 29.89 in 4.0 mi East 10.4 mph 16.1 mph N/A Snow Light Snow
12:34 PM 31.8 °F 24.6 °F 31.6 °F 99% 29.88 in 2.0 mi East 8.1 mph 16.1 mph N/A Rain Light Freezing Rain
12:53 PM 31.8 °F 23.3 °F 31.6 °F 99% 29.86 in 3.0 mi East 10.4 mph 16.1 mph N/A   Overcast
1:14 PM 32.0 °F 24.8 °F 31.8 °F 99% 29.86 in 2.5 mi ESE 8.1 mph - N/A   Overcast
1:34 PM 32.0 °F 25.6 °F 32.0 °F 100% 29.86 in 2.5 mi East 6.9 mph - N/A   Overcast
1:53 PM 32.0 °F 25.6 °F 32.0 °F 100% 29.86 in 1.8 mi East 6.9 mph - N/A   Overcast
2:14 PM 32.4 °F 26.0 °F 32.4 °F 100% 29.85 in 1.8 mi East 6.9 mph 16.1 mph N/A Snow Light Snow
2:34 PM 32.5 °F 24.8 °F 32.4 °F 99% 29.84 in 3.0 mi East 9.2 mph - N/A   Overcast
2:53 PM 32.9 °F 24.7 °F 32.5 °F 99% 29.83 in 5.0 mi ESE 10.4 mph 17.3 mph N/A   Overcast
3:14 PM 33.1 °F 26.9 °F 32.7 °F 99% 29.84 in 7.0 mi East 6.9 mph - N/A   Overcast
3:33 PM 33.1 °F 26.9 °F 32.5 °F 98% 29.84 in 10.0 mi East 6.9 mph 16.1 mph N/A   Overcast
3:54 PM 33.4 °F 26.6 °F 32.7 °F 97% 29.84 in 10.0 mi East 8.1 mph - N/A   Overcast
4:14 PM 33.6 °F 28.4 °F 32.9 °F 97% 29.84 in 10.0 mi East 5.8 mph - N/A   Overcast
4:33 PM 33.8 °F 28.6 °F 32.9 °F 96% 29.84 in 10.0 mi East 5.8 mph - N/A   Overcast
4:54 PM 33.8 °F 28.6 °F 32.9 °F 96% 29.84 in 10.0 mi East 5.8 mph - N/A   Overcast
5:14 PM 33.8 °F 27.0 °F 32.9 °F 96% 29.86 in 10.0 mi ENE 8.1 mph - N/A   Overcast
5:33 PM 33.8 °F 27.0 °F 32.9 °F 96% 29.86 in 10.0 mi East 8.1 mph - N/A   Overcast
5:54 PM 33.8 °F 26.4 °F 32.9 °F 96% 29.86 in 10.0 mi East 9.2 mph - N/A   Overcast
6:14 PM 33.8 °F 28.6 °F 32.9 °F 96% 29.87 in 10.0 mi East 5.8 mph - N/A   Overcast
6:33 PM 33.4 °F 28.1 °F 32.9 °F 98% 29.88 in 7.0 mi East 5.8 mph - N/A   Overcast
6:54 PM 33.4 °F 27.3 °F 32.9 °F 98% 29.89 in 7.0 mi East 6.9 mph - N/A   Overcast
7:14 PM 33.3 °F 26.4 °F 32.4 °F 96% 29.89 in 7.0 mi East 8.1 mph 16.1 mph N/A   Overcast
7:33 PM 33.1 °F 28.7 °F 32.5 °F 98% 29.89 in 7.0 mi ENE 4.6 mph - N/A   Overcast
7:54 PM 33.1 °F 26.9 °F 32.4 °F 97% 29.89 in 7.0 mi East 6.9 mph - N/A   Overcast
8:13 PM 32.9 °F 28.5 °F 32.0 °F 96% 29.89 in 10.0 mi East 4.6 mph - N/A   Overcast
8:34 PM 32.9 °F 28.5 °F 32.0 °F 96% 29.90 in 10.0 mi ENE 4.6 mph - N/A   Overcast
8:54 PM 32.9 °F 27.5 °F 32.2 °F 97% 29.90 in 10.0 mi East 5.8 mph - N/A   Overcast
9:14 PM 32.9 °F 25.9 °F 32.0 °F 96% 29.91 in 10.0 mi East 8.1 mph - N/A   Overcast
9:34 PM 32.7 °F 27.3 °F 32.0 °F 97% 29.91 in 10.0 mi ENE 5.8 mph - N/A   Overcast
9:54 PM 32.5 °F 26.2 °F 32.0 °F 98% 29.91 in 10.0 mi East 6.9 mph - N/A   Overcast
10:13 PM 32.5 °F 27.1 °F 31.8 °F 97% 29.91 in 10.0 mi ENE 5.8 mph - N/A   Overcast
10:34 PM 32.5 °F 25.5 °F 31.8 °F 97% 29.91 in 10.0 mi ENE 8.1 mph - N/A   Overcast
10:54 PM 32.5 °F 27.1 °F 31.5 °F 96% 29.92 in 10.0 mi ENE 5.8 mph - N/A   Overcast
11:13 PM 32.7 °F 27.3 °F 31.1 °F 94% 29.92 in 10.0 mi ENE 5.8 mph - N/A   Overcast
11:54 PM 32.7 °F 27.3 °F 30.9 °F 93% 29.94 in 10.0 mi East 5.8 mph - N/A   Overcast